Location: Augsburg
(48.3836°N, 10.8929°E)
Time: 12:40:38
(UTC+01:00)

ISS - Pass Details

Date: 15 November 2017
Orbit: 402 x 407 km, 51.6° (Epoch: 21 November)

Event Time Altitude Azimuth Distance (km) Brightness Sun altitude
Exits shadow 04:55:36 31° 114° (ESE) 726 -2.1 -24.5°
Drops below altitude 10° 04:57:27 10° 114° (ESE) 1,452 -0.1 -24.2°
Sets 04:59:31 0° 114° (ESE) 2,309 1.1 -23.9°
